Location: Madrid
(40.4000°N, 3.6830°W)
Time: 15:40:42

ISS - Pass Details

Date: 15 March 2018
Orbit: 403 x 406 km, 51.6° (Epoch: 17 March)

Event Time Altitude Azimuth Distance (km) Brightness Sun altitude
Exits shadow 06:02:40 12° 332° (NNW) 1,378 -1.3 -16.7°
Maximum altitude 06:05:04 22° 23° (NNE) 931 -1.6 -16.3°
Drops below altitude 10° 06:07:43 10° 77° (ENE) 1,459 0.4 -15.8°
Sets 06:10:05 0° 93° (E) 2,316 1.6 -15.4°
